Weather History for Omaha Offutt, NE

Change the Weather History Date:

Saturday, May 5, 2012

  Actual Average Record
Temperature  
Mean Temperature 80 °F -  
Max Temperature 91 °F 68 °F 91 °F (2012)
Min Temperature 71 °F 48 °F 39 °F (2008)
Cooling Degree Days 16    
Growing Degree Days 30 (Base 50)    
Moisture  
Dew Point 71 °F    
Average Humidity 79    
Maximum Humidity 94    
Minimum Humidity 46    
Precipitation  
Precipitation 0.00 in - - ()
Sea Level Pressure  
Sea Level Pressure 29.74 in    
Wind  
Wind Speed 10 mph (ESE)    
Max Wind Speed 20 mph    
Max Gust Speed 24 mph    
Visibility 9 miles    
Events      
Averages and records for this station are not official NWS values.
T = Trace of Precipitation, MM = Missing Value Source: NWS Daily Summary

Daily Weather History Graph

Daily Weather History Graph

Search for Another Location

Airport:

Trip Planner

Search our weather history database for the weather conditions in past years. The results will help you decide how hot, cold, wet, or windy it might be!

Date:

Astronomy

May. 05, 2012 Rise Set
Actual Time 6:15 AM CDT 8:25 PM CDT
Civil Twilight 5:45 AM CDT 8:55 PM CDT
Nautical Twilight 5:08 AM CDT 9:33 PM CDT
Astronomical Twilight 4:27 AM CDT 10:14 PM CDT
Moon 8:19 PM CDT (5/5) 5:39 AM CDT (5/5)
Length of Visible Light 15h 10m
Length of Day
14h 09m
Full, 100% of the Moon is Illuminated
May 5
Full
May 5
Full
May 12
Last Quarter
May 20
New
May 28
First Quarter

Hourly Weather History & Observations

Time (CDT) Temp. Heat Index Dew Point Humidity Pressure Visibility Wind Dir Wind Speed Gust Speed Precip Events Conditions
12:55 AM 75.4 °F - 71.2 °F 87% 29.80 in 10.0 mi ENE 8.1 mph - N/A   Clear
1:55 AM 74.1 °F - 71.1 °F 90% 29.78 in 10.0 mi ENE 8.1 mph - N/A   Clear
2:55 AM 73.8 °F - 70.9 °F 91% 29.76 in 10.0 mi ESE 4.6 mph - N/A   Clear
3:47 AM 73.4 °F - 71.6 °F 94% 29.70 in 4.0 mi East 12.7 mph 20.7 mph N/A   Partly Cloudy
3:48 AM 73.4 °F - 71.6 °F 94% 29.70 in 4.0 mi ENE 11.5 mph 20.7 mph N/A   Partly Cloudy
3:49 AM 73.4 °F - 71.6 °F 94% 29.71 in 4.0 mi ENE 11.5 mph 20.7 mph N/A   Scattered Clouds
3:50 AM 73.4 °F - 71.6 °F 94% 29.71 in 5.0 mi NE 10.4 mph 20.7 mph N/A   Scattered Clouds
3:54 AM 73.4 °F - 71.6 °F 94% 29.74 in 6.0 mi ENE 10.4 mph - N/A   Mostly Cloudy
3:55 AM 73.9 °F - 70.9 °F 90% 29.74 in 7.0 mi East 12.7 mph - N/A   Mostly Cloudy
3:56 AM 73.4 °F - 71.6 °F 94% 29.74 in 8.0 mi ESE 12.7 mph - N/A   Scattered Clouds
4:55 AM 73.8 °F - 70.7 °F 90% 29.74 in 10.0 mi SSW 3.5 mph - N/A   Clear
5:55 AM 72.3 °F - 70.2 °F 93% 29.76 in 10.0 mi NNE 5.8 mph - N/A   Scattered Clouds
6:06 AM 71.6 °F - 69.8 °F 94% 29.77 in 10.0 mi NNE 6.9 mph - N/A   Mostly Cloudy
6:55 AM 72.5 °F - 70.3 °F 93% 29.77 in 9.0 mi East 5.8 mph - N/A   Overcast
6:57 AM 73.4 °F - 69.8 °F 88% 29.77 in 9.0 mi East 5.8 mph - N/A   Overcast
6:59 AM 73.4 °F - 69.8 °F 88% 29.77 in 9.0 mi East 5.8 mph - N/A   Overcast
7:13 AM 73.4 °F - 69.8 °F 88% 29.77 in 8.0 mi East 5.8 mph - N/A   Overcast
7:49 AM 73.4 °F - 69.8 °F 88% 29.77 in 9.0 mi East 5.8 mph - N/A   Scattered Clouds
7:55 AM 73.9 °F - 70.7 °F 90% 29.78 in 9.0 mi East 6.9 mph - N/A   Scattered Clouds
7:56 AM 73.4 °F - 71.6 °F 94% 29.78 in 9.0 mi East 6.9 mph - N/A   Mostly Cloudy
8:34 AM 75.2 °F - 71.6 °F 89% 29.78 in 10.0 mi ESE 6.9 mph - N/A   Scattered Clouds
8:55 AM 76.5 °F - 71.2 °F 84% 29.77 in 10.0 mi ESE 9.2 mph - N/A   Clear
9:25 AM 77.0 °F - 71.6 °F 83% 29.76 in 10.0 mi ESE 11.5 mph - N/A   Mostly Cloudy
9:28 AM 77.0 °F - 71.6 °F 83% 29.76 in 10.0 mi ESE 11.5 mph - N/A   Scattered Clouds
9:49 AM 78.8 °F - 71.6 °F 78% 29.75 in 10.0 mi ESE 11.5 mph - N/A   Mostly Cloudy
9:55 AM 78.4 °F - 71.6 °F 79% 29.75 in 10.0 mi ESE 11.5 mph - N/A   Mostly Cloudy
10:03 AM 78.8 °F - 71.6 °F 78% 29.76 in 10.0 mi ESE 12.7 mph - N/A   Scattered Clouds
10:41 AM 80.6 °F 84.6 °F 71.6 °F 74% 29.77 in 10.0 mi SE 11.5 mph - N/A   Mostly Cloudy
10:43 AM 80.6 °F 84.6 °F 71.6 °F 74% 29.77 in 10.0 mi ESE 11.5 mph - N/A   Scattered Clouds
10:55 AM 80.8 °F 84.9 °F 71.8 °F 74% 29.77 in 10.0 mi SE 13.8 mph - N/A   Scattered Clouds
11:55 AM 82.6 °F 87.6 °F 71.8 °F 70% 29.76 in 10.0 mi SE 13.8 mph - N/A   Clear
12:55 PM 85.3 °F 91.1 °F 72.0 °F 64% 29.74 in 10.0 mi ESE 15.0 mph 19.6 mph N/A   Clear
1:55 PM 86.7 °F 93.3 °F 72.1 °F 62% 29.73 in 10.0 mi SE 17.3 mph - N/A   Clear
2:55 PM 88.2 °F 94.1 °F 71.4 °F 57% 29.70 in 10.0 mi ESE 19.6 mph - N/A   Clear
3:55 PM 90.1 °F 94.9 °F 69.1 °F 50% 29.67 in 10.0 mi SE 16.1 mph 24.2 mph N/A   Clear
4:55 PM 90.9 °F 94.8 °F 68.2 °F 47% 29.66 in 10.0 mi ESE 19.6 mph 23.0 mph N/A   Clear
5:55 PM 90.7 °F 94.1 °F 67.1 °F 46% 29.66 in 10.0 mi SE 18.4 mph 23.0 mph N/A   Clear
6:55 PM 88.5 °F 91.6 °F 66.9 °F 49% 29.66 in 10.0 mi SE 16.1 mph 23.0 mph N/A   Clear
7:55 PM 85.3 °F 88.8 °F 68.7 °F 57% 29.68 in 10.0 mi ESE 12.7 mph - N/A   Clear
8:55 PM 82.0 °F 85.3 °F 68.7 °F 64% 29.70 in 10.0 mi ESE 11.5 mph - N/A   Clear
9:55 PM 80.2 °F 83.3 °F 69.6 °F 70% 29.71 in 10.0 mi ESE 10.4 mph - N/A   Partly Cloudy
10:55 PM 78.1 °F - 69.1 °F 74% 29.72 in 10.0 mi SE 10.4 mph - N/A   Partly Cloudy
11:55 PM 77.9 °F - 68.2 °F 72% 29.70 in 10.0 mi SE 16.1 mph - N/A   Clear